Weather History for Clinton, OK

Change the Weather History Date:

Saturday, April 20, 2013

  Actual Average (KCSM) Record (KCSM)
Temperature  
Mean Temperature 56 °F -  
Max Temperature 69 °F 70 °F 90 °F (1999)
Min Temperature 42 °F 47 °F 41 °F (1998)
Degree Days  
Heating Degree Days 10    
Growing Degree Days 6 (Base 50)    
Moisture  
Dew Point 29 °F    
Average Humidity 41    
Maximum Humidity 61    
Minimum Humidity 16    
Precipitation  
Precipitation 0.00 in - - ()
Sea Level Pressure  
Sea Level Pressure 30.01 in    
Wind  
Wind Speed 15 mph (SSE)    
Max Wind Speed 29 mph    
Max Gust Speed 39 mph    
Visibility 10 miles    
Events      
Averages and records for this station are not official NWS values.
T = Trace of Precipitation, MM = Missing Value Source: NWS Daily Summary

Daily Weather History Graph

Daily Weather History Graph

Search for Another Location

Airport:

Trip Planner

Search our weather history database for the weather conditions in past years. The results will help you decide how hot, cold, wet, or windy it might be!

Date:

Astronomy

Apr. 20, 2013 Rise Set
Actual Time 6:56 AM CDT 8:13 PM CDT
Civil Twilight 6:29 AM CDT 8:39 PM CDT
Nautical Twilight 5:58 AM CDT 9:11 PM CDT
Astronomical Twilight 5:25 AM CDT 9:44 PM CDT
Moon 3:09 PM CDT (4/20) 3:35 AM CDT (4/20)
Length of Visible Light 14h 09m
Length of Day
13h 16m
Waxing Gibbous, 71% of the Moon is Illuminated
Apr 20
Waxing Gibbous
Apr 25
Full
May 2
Last Quarter
May 9
New
May 17
First Quarter

Hourly Weather History & Observations

Time (CDT) Temp. Windchill Dew Point Humidity Pressure Visibility Wind Dir Wind Speed Gust Speed Precip Events Conditions
12:15 AM 44.6 °F 38.8 °F 32.0 °F 61% 30.05 in 10.0 mi SSE 11.5 mph - N/A   Clear
12:35 AM 44.6 °F 38.8 °F 32.0 °F 61% 30.05 in 10.0 mi SSE 11.5 mph - N/A   Clear
12:55 AM 44.6 °F 39.2 °F 32.0 °F 61% 30.05 in 10.0 mi SSE 10.4 mph - N/A   Clear
1:15 AM 44.6 °F 38.8 °F 32.0 °F 61% 30.05 in 10.0 mi SSE 11.5 mph - N/A   Clear
1:35 AM 44.6 °F 39.2 °F 32.0 °F 61% 30.06 in 10.0 mi SSE 10.4 mph - N/A   Clear
1:55 AM 42.8 °F 37.0 °F 30.2 °F 61% 30.06 in 10.0 mi SSE 10.4 mph - N/A   Clear
2:15 AM 42.8 °F 36.6 °F 30.2 °F 61% 30.06 in 10.0 mi SSE 11.5 mph - N/A   Clear
2:35 AM 44.6 °F 38.8 °F 30.2 °F 57% 30.06 in 10.0 mi SSE 11.5 mph - N/A   Clear
2:55 AM 44.6 °F 38.8 °F 30.2 °F 57% 30.05 in 10.0 mi SSE 11.5 mph - N/A   Clear
3:15 AM 42.8 °F 36.6 °F 30.2 °F 61% 30.05 in 10.0 mi SSE 11.5 mph - N/A   Clear
3:35 AM 44.6 °F 38.8 °F 28.4 °F 53% 30.05 in 10.0 mi SSE 11.5 mph - N/A   Clear
3:55 AM 44.6 °F 39.2 °F 28.4 °F 53% 30.05 in 10.0 mi South 10.4 mph - N/A   Clear
4:15 AM 42.8 °F 36.6 °F 28.4 °F 57% 30.04 in 10.0 mi South 11.5 mph - N/A   Clear
4:35 AM 44.6 °F 38.4 °F 28.4 °F 53% 30.04 in 10.0 mi South 12.7 mph - N/A   Clear
4:55 AM 44.6 °F 38.4 °F 28.4 °F 53% 30.04 in 10.0 mi SSE 12.7 mph - N/A   Clear
5:15 AM 44.6 °F 38.8 °F 28.4 °F 53% 30.03 in 10.0 mi SSE 11.5 mph - N/A   Clear
5:35 AM 44.6 °F 38.8 °F 28.4 °F 53% 30.03 in 10.0 mi South 11.5 mph - N/A   Clear
5:55 AM 44.6 °F 38.4 °F 28.4 °F 53% 30.03 in 10.0 mi South 12.7 mph - N/A   Clear
6:15 AM 44.6 °F 39.2 °F 28.4 °F 53% 30.03 in 10.0 mi South 10.4 mph - N/A   Clear
6:35 AM 44.6 °F 40.2 °F 28.4 °F 53% 30.04 in 10.0 mi SSE 8.1 mph - N/A   Clear
7:15 AM 44.6 °F 39.7 °F 30.2 °F 57% 30.04 in 10.0 mi SSE 9.2 mph - N/A   Clear
7:35 AM 44.6 °F 39.2 °F 30.2 °F 57% 30.04 in 10.0 mi SSE 10.4 mph - N/A   Clear
7:55 AM 44.6 °F 39.2 °F 30.2 °F 57% 30.05 in 10.0 mi SSE 10.4 mph - N/A   Clear
8:15 AM 44.6 °F 39.2 °F 30.2 °F 57% 30.05 in 10.0 mi SSE 10.4 mph - N/A   Clear
8:35 AM 44.6 °F 39.7 °F 30.2 °F 57% 30.06 in 10.0 mi SE 9.2 mph - N/A   Clear
8:55 AM 44.6 °F 40.7 °F 30.2 °F 57% 30.07 in 10.0 mi SSE 6.9 mph - N/A   Clear
9:15 AM 46.4 °F 41.9 °F 32.0 °F 57% 30.07 in 10.0 mi South 9.2 mph - N/A   Clear
9:35 AM 46.4 °F 41.5 °F 32.0 °F 57% 30.07 in 10.0 mi South 10.4 mph - N/A   Clear
9:55 AM 46.4 °F 40.1 °F 30.2 °F 53% 30.07 in 10.0 mi South 15.0 mph 19.6 mph N/A   Clear
10:15 AM 48.2 °F - 30.2 °F 50% 30.07 in 10.0 mi South 11.5 mph - N/A   Clear
10:35 AM 50.0 °F - 32.0 °F 50% 30.06 in 10.0 mi South 18.4 mph 23.0 mph N/A   Clear
10:55 AM 51.8 °F - 32.0 °F 47% 30.06 in 10.0 mi South 18.4 mph - N/A   Clear
11:15 AM 51.8 °F - 32.0 °F 47% 30.06 in 10.0 mi South 16.1 mph - N/A   Clear
11:35 AM 53.6 °F - 30.2 °F 41% 30.05 in 10.0 mi South 18.4 mph - N/A   Clear
11:55 AM 55.4 °F - 32.0 °F 41% 30.05 in 10.0 mi SSE 16.1 mph - N/A   Clear
12:15 PM 57.2 °F - 28.4 °F 33% 30.04 in 10.0 mi South 20.7 mph 34.5 mph N/A   Clear
12:35 PM 59.0 °F - 32.0 °F 36% 30.04 in 10.0 mi South 20.7 mph 26.5 mph N/A   Clear
12:55 PM 60.8 °F - 32.0 °F 34% 30.02 in 10.0 mi SSE 21.9 mph 27.6 mph N/A   Clear
1:15 PM 62.6 °F - 28.4 °F 27% 30.00 in 10.0 mi South 21.9 mph 33.4 mph N/A   Clear
1:35 PM 64.4 °F - 28.4 °F 26% 29.98 in 10.0 mi South 26.5 mph 33.4 mph N/A   Clear
1:55 PM 68.0 °F - 26.6 °F 21% 29.97 in 10.0 mi South 28.8 mph 38.0 mph N/A   Clear
2:15 PM 64.4 °F - 26.6 °F 24% 29.97 in 10.0 mi South 23.0 mph 34.5 mph N/A   Clear
2:35 PM 68.0 °F - 26.6 °F 21% 29.97 in 10.0 mi South 28.8 mph 35.7 mph N/A   Clear
2:55 PM 68.0 °F - 26.6 °F 21% 29.96 in 10.0 mi South 27.6 mph 39.1 mph N/A   Clear
3:15 PM 66.2 °F - 28.4 °F 24% 29.95 in 10.0 mi South 25.3 mph 34.5 mph N/A   Clear
3:35 PM 68.0 °F - 24.8 °F 20% 29.94 in 10.0 mi South 26.5 mph 36.8 mph N/A   Clear
3:55 PM 68.0 °F - 23.0 °F 18% 29.93 in 10.0 mi South 28.8 mph 38.0 mph N/A   Clear
4:15 PM 68.0 °F - 24.8 °F 20% 29.92 in 10.0 mi South 27.6 mph 38.0 mph N/A   Clear
4:35 PM 69.8 °F - 21.2 °F 16% 29.92 in 10.0 mi South 28.8 mph 38.0 mph N/A   Clear
4:55 PM 68.0 °F - 23.0 °F 18% 29.92 in 10.0 mi South 27.6 mph 36.8 mph N/A   Clear
5:15 PM 69.8 °F - 21.2 °F 16% 29.92 in 10.0 mi South 27.6 mph 34.5 mph N/A   Clear
5:35 PM 69.8 °F - 23.0 °F 17% 29.92 in 10.0 mi South 19.6 mph 34.5 mph N/A   Clear
6:15 PM 68.0 °F - 23.0 °F 18% 29.92 in 10.0 mi SSE 24.2 mph 27.6 mph N/A   Clear
6:35 PM 66.2 °F - 24.8 °F 21% 29.92 in 10.0 mi SSE 23.0 mph 31.1 mph N/A   Clear
6:55 PM 64.4 °F - 23.0 °F 21% 29.90 in 10.0 mi SSE 24.2 mph 34.5 mph N/A   Clear
7:15 PM 64.4 °F - 26.6 °F 24% 29.92 in 10.0 mi SSE 17.3 mph 25.3 mph N/A   Clear
7:35 PM 62.6 °F - 26.6 °F 26% 29.92 in 10.0 mi SE 17.3 mph 26.5 mph N/A   Clear
7:55 PM 60.8 °F - 26.6 °F 27% 29.92 in 10.0 mi SE 20.7 mph 25.3 mph N/A   Clear
8:15 PM 60.8 °F - 28.4 °F 29% 29.92 in 10.0 mi SE 16.1 mph - N/A   Clear
8:35 PM 59.0 °F - 26.6 °F 29% 29.94 in 10.0 mi SE 17.3 mph 24.2 mph N/A   Clear
8:55 PM 59.0 °F - 26.6 °F 29% 29.96 in 10.0 mi SE 17.3 mph - N/A   Clear
9:15 PM 57.2 °F - 26.6 °F 31% 29.97 in 10.0 mi SE 13.8 mph - N/A   Clear
9:35 PM 55.4 °F - 28.4 °F 36% 29.98 in 10.0 mi SE 16.1 mph - N/A   Clear
9:55 PM 55.4 °F - 28.4 °F 36% 29.99 in 10.0 mi SE 16.1 mph - N/A   Clear
10:15 PM 55.4 °F - 28.4 °F 36% 29.99 in 10.0 mi SE 16.1 mph - N/A   Clear
10:35 PM 55.4 °F - 30.2 °F 38% 29.99 in 10.0 mi ESE 16.1 mph - N/A   Clear
10:55 PM 55.4 °F - 30.2 °F 38% 30.00 in 10.0 mi SE 19.6 mph 27.6 mph N/A   Clear
11:15 PM 55.4 °F - 30.2 °F 38% 30.01 in 10.0 mi SE 19.6 mph 26.5 mph N/A   Clear
11:35 PM 55.4 °F - 30.2 °F 38% 30.01 in 10.0 mi SE 13.8 mph - N/A   Clear
11:55 PM 55.4 °F - 30.2 °F 38% 30.02 in 10.0 mi SSE 15.0 mph - N/A   Clear